Time,TemperatureF,DewpointF,PressureIn,WindDirection,WindDirectionDegrees,WindSpeedMPH,WindSpeedGustMPH,Humidity,HourlyPrecipIn,Conditions,Clouds,dailyrainin,SolarRadiationWatts/m^2,SoftwareType,DateUTC
2013-09-26 00:00:00,80.7,74.3,29.76,SE,128,6.0,8.2,81,0.00,,---,0.00,0.00,VWS V14.01,2013-09-26 05:00:00,
2013-09-26 00:01:00,80.7,74.3,29.76,SE,129,1.0,8.2,81,0.00,,---,0.00,0.00,VWS V14.01,2013-09-26 05:01:00,
2013-09-26 00:05:00,81.1,74.3,29.76,SE,128,4.0,8.2,80,0.00,,---,0.00,0.00,VWS V14.01,2013-09-26 05:05:00,
2013-09-26 00:06:00,81.1,74.3,29.76,SE,128,7.0,8.2,80,0.00,,---,0.00,0.00,VWS V14.01,2013-09-26 05:06:00,
2013-09-26 00:10:00,80.7,74.3,29.76,SE,128,4.0,8.2,81,0.00,,---,0.00,0.00,VWS V14.01,2013-09-26 05:10:00,
2013-09-26 00:11:00,80.7,74.3,29.76,SE,128,2.0,8.2,81,0.00,,---,0.00,0.00,VWS V14.01,2013-09-26 05:11:00,
2013-09-26 00:15:00,80.7,74.7,29.76,SE,128,2.0,7.2,82,0.00,,---,0.00,0.00,VWS V14.01,2013-09-26 05:15:00,
2013-09-26 00:16:00,80.7,74.7,29.76,SE,128,4.0,7.2,82,0.00,,---,0.00,0.00,VWS V14.01,2013-09-26 05:16:00,
2013-09-26 00:20:00,80.9,74.9,29.76,SE,128,6.0,9.2,82,0.00,,---,0.00,0.00,VWS V14.01,2013-09-26 05:20:00,
2013-09-26 00:21:00,80.9,74.9,29.76,SE,128,6.0,8.2,82,0.00,,---,0.00,0.00,VWS V14.01,2013-09-26 05:21:00,
2013-09-26 00:25:00,80.9,74.5,29.76,SE,128,6.0,11.2,81,0.00,,---,0.00,0.00,VWS V14.01,2013-09-26 05:25:00,
2013-09-26 00:26:00,80.9,74.5,29.76,SE,128,5.0,11.2,81,0.00,,---,0.00,0.00,VWS V14.01,2013-09-26 05:26:00,
2013-09-26 00:30:00,80.9,74.5,29.76,SE,128,4.0,8.2,81,0.00,,---,0.00,0.00,VWS V14.01,2013-09-26 05:30:00,
2013-09-26 00:31:00,80.9,74.5,29.76,SE,128,3.0,8.2,81,0.00,,---,0.00,0.00,VWS V14.01,2013-09-26 05:31:00,
2013-09-26 00:35:00,80.7,74.7,29.76,SE,128,3.0,7.2,82,0.00,,---,0.00,0.00,VWS V14.01,2013-09-26 05:35:00,
2013-09-26 00:36:00,80.7,74.7,29.76,SE,128,4.0,6.2,82,0.00,,---,0.00,0.00,VWS V14.01,2013-09-26 05:36:00,
2013-09-26 00:40:00,80.3,74.7,29.76,SE,128,4.0,7.2,83,0.00,,---,0.00,0.00,VWS V14.01,2013-09-26 05:40:00,
2013-09-26 00:41:00,80.3,74.7,29.76,SE,128,3.0,7.2,83,0.00,,---,0.00,0.00,VWS V14.01,2013-09-26 05:41:00,
2013-09-26 00:45:00,80.3,75.0,29.76,SE,128,4.0,8.2,84,0.00,,---,0.00,0.00,VWS V14.01,2013-09-26 05:45:00,
2013-09-26 00:46:00,80.3,75.0,29.76,SE,128,2.0,8.2,84,0.00,,---,0.00,0.00,VWS V14.01,2013-09-26 05:46:00,
2013-09-26 00:50:00,80.3,75.0,29.76,SE,128,1.0,6.2,84,0.00,,---,0.00,0.00,VWS V14.01,2013-09-26 05:50:00,
2013-09-26 00:51:00,80.3,75.0,29.76,SE,128,2.0,6.2,84,0.00,,---,0.00,0.00,VWS V14.01,2013-09-26 05:51:00,
2013-09-26 00:55:00,80.5,75.2,29.76,SE,128,4.0,7.2,84,0.00,,---,0.00,0.00,VWS V14.01,2013-09-26 05:55:00,
2013-09-26 00:56:00,80.5,75.2,29.76,SE,128,4.0,7.2,84,0.00,,---,0.00,0.00,VWS V14.01,2013-09-26 05:56:00,
2013-09-26 01:00:00,80.3,74.7,29.76,SE,128,0.0,7.2,83,0.00,,---,0.00,0.00,VWS V14.01,2013-09-26 06:00:00,
2013-09-26 01:01:00,80.3,74.7,29.76,SE,128,2.0,7.2,83,0.00,,---,0.00,0.00,VWS V14.01,2013-09-26 06:01:00,
2013-09-26 01:05:00,80.1,74.5,29.76,SE,128,4.0,8.2,83,0.00,,---,0.00,0.00,VWS V14.01,2013-09-26 06:05:00,
2013-09-26 01:06:00,80.1,74.5,29.76,SE,128,3.0,8.2,83,0.00,,---,0.00,0.00,VWS V14.01,2013-09-26 06:06:00,
2013-09-26 01:10:00,80.1,74.5,29.76,SE,128,2.0,6.2,83,0.00,,---,0.00,0.00,VWS V14.01,2013-09-26 06:10:00,
2013-09-26 01:11:00,80.1,74.5,29.76,SE,128,1.0,6.2,83,0.00,,---,0.00,0.00,VWS V14.01,2013-09-26 06:11:00,
2013-09-26 01:15:00,80.1,74.8,29.75,SE,128,1.0,7.2,84,0.00,,---,0.00,0.00,VWS V14.01,2013-09-26 06:15:00,
2013-09-26 01:16:00,80.1,74.8,29.75,SE,128,3.0,7.2,84,0.00,,---,0.00,0.00,VWS V14.01,2013-09-26 06:16:00,
2013-09-26 01:20:00,80.1,74.8,29.75,SE,133,3.0,8.2,84,0.00,,---,0.00,0.00,VWS V14.01,2013-09-26 06:20:00,
2013-09-26 01:21:00,80.1,74.8,29.75,SE,133,4.0,8.2,84,0.00,,---,0.00,0.00,VWS V14.01,2013-09-26 06:21:00,
2013-09-26 01:25:00,80.1,74.8,29.75,SE,133,1.0,6.2,84,0.00,,---,0.00,0.00,VWS V14.01,2013-09-26 06:25:00,
2013-09-26 01:26:00,80.1,74.8,29.75,SE,133,1.0,6.2,84,0.00,,---,0.00,0.00,VWS V14.01,2013-09-26 06:26:00,
2013-09-26 01:30:00,80.1,74.8,29.75,SE,133,4.0,7.2,84,0.00,,---,0.00,0.00,VWS V14.01,2013-09-26 06:30:00,
2013-09-26 01:31:00,80.1,74.8,29.75,SE,133,4.0,7.2,84,0.00,,---,0.00,0.00,VWS V14.01,2013-09-26 06:31:00,
2013-09-26 01:35:00,80.1,74.8,29.75,SE,143,2.0,11.2,84,0.00,,---,0.00,0.00,VWS V14.01,2013-09-26 06:35:00,
2013-09-26 01:36:00,80.1,74.8,29.75,SE,143,3.0,11.2,84,0.00,,---,0.00,0.00,VWS V14.01,2013-09-26 06:36:00,
2013-09-26 01:40:00,80.5,75.2,29.75,SE,143,2.0,10.2,84,0.00,,---,0.00,0.00,VWS V14.01,2013-09-26 06:40:00,
2013-09-26 01:41:00,80.5,75.2,29.75,SE,143,1.0,10.2,84,0.00,,---,0.00,0.00,VWS V14.01,2013-09-26 06:41:00,
2013-09-26 01:45:00,80.7,74.7,29.75,SE,143,2.0,6.2,82,0.00,,---,0.00,0.00,VWS V14.01,2013-09-26 06:45:00,
2013-09-26 01:46:00,80.7,74.7,29.75,SE,143,5.0,6.2,82,0.00,,---,0.00,0.00,VWS V14.01,2013-09-26 06:46:00,
2013-09-26 01:50:00,80.7,74.7,29.75,SE,143,1.0,7.2,82,0.00,,---,0.00,0.00,VWS V14.01,2013-09-26 06:50:00,
2013-09-26 01:51:00,80.7,74.7,29.75,SE,143,1.0,7.2,82,0.00,,---,0.00,0.00,VWS V14.01,2013-09-26 06:51:00,
2013-09-26 01:55:00,80.7,74.7,29.75,SE,143,2.0,8.2,82,0.00,,---,0.00,0.00,VWS V14.01,2013-09-26 06:55:00,
2013-09-26 01:56:00,80.7,75.1,29.75,SE,143,6.0,8.2,83,0.00,,---,0.00,0.00,VWS V14.01,2013-09-26 06:56:00,
2013-09-26 02:00:00,80.5,74.5,29.75,SE,143,4.0,7.2,82,0.00,,---,0.00,0.00,VWS V14.01,2013-09-26 07:00:00,
2013-09-26 02:01:00,80.5,74.5,29.75,SE,144,3.0,7.2,82,0.00,,---,0.00,0.00,VWS V14.01,2013-09-26 07:01:00,
2013-09-26 02:05:00,80.3,74.7,29.75,SE,140,1.0,10.2,83,0.00,,---,0.00,0.00,VWS V14.01,2013-09-26 07:05:00,
2013-09-26 02:06:00,80.3,74.7,29.75,SE,140,3.0,10.2,83,0.00,,---,0.00,0.00,VWS V14.01,2013-09-26 07:06:00,
2013-09-26 02:10:00,80.1,74.5,29.75,SE,146,2.0,10.2,83,0.00,,---,0.00,0.00,VWS V14.01,2013-09-26 07:10:00,
2013-09-26 02:11:00,80.1,74.5,29.75,SE,146,4.0,10.2,83,0.00,,---,0.00,0.00,VWS V14.01,2013-09-26 07:11:00,
2013-09-26 02:15:00,80.1,74.5,29.75,SE,141,5.0,8.2,83,0.00,,---,0.00,0.00,VWS V14.01,2013-09-26 07:15:00,
2013-09-26 02:16:00,80.1,74.5,29.75,SE,146,3.0,8.2,83,0.00,,---,0.00,0.00,VWS V14.01,2013-09-26 07:16:00,
2013-09-26 02:20:00,80.3,75.0,29.75,SE,141,3.0,8.2,84,0.00,,---,0.00,0.00,VWS V14.01,2013-09-26 07:20:00,
2013-09-26 02:21:00,80.3,75.0,29.75,SE,141,4.0,8.2,84,0.00,,---,0.00,0.00,VWS V14.01,2013-09-26 07:21:00,
2013-09-26 02:25:00,80.3,75.0,29.75,SE,141,3.0,6.2,84,0.00,,---,0.00,0.00,VWS V14.01,2013-09-26 07:25:00,
2013-09-26 02:26:00,80.3,75.0,29.75,SE,141,3.0,6.2,84,0.00,,---,0.00,0.00,VWS V14.01,2013-09-26 07:26:00,
2013-09-26 02:30:00,80.3,75.0,29.74,SE,141,4.0,6.2,84,0.00,,---,0.00,0.00,VWS V14.01,2013-09-26 07:30:00,
2013-09-26 02:31:00,80.3,75.0,29.74,SE,141,3.0,6.2,84,0.00,,---,0.00,0.00,VWS V14.01,2013-09-26 07:31:00,
2013-09-26 02:35:00,80.5,75.2,29.74,SE,141,5.0,7.2,84,0.00,,---,0.00,0.00,VWS V14.01,2013-09-26 07:35:00,
2013-09-26 02:40:00,80.3,75.0,29.74,SE,141,4.0,7.2,84,0.00,,---,0.00,0.00,VWS V14.01,2013-09-26 07:40:00,
2013-09-26 02:45:00,80.3,75.0,29.74,SE,141,3.0,7.2,84,0.00,,---,0.00,0.00,VWS V14.01,2013-09-26 07:45:00,
2013-09-26 02:50:00,80.3,75.0,29.74,SE,141,1.0,7.2,84,0.00,,---,0.00,0.00,VWS V14.01,2013-09-26 07:50:00,
2013-09-26 02:55:00,80.3,75.0,29.74,SE,141,4.0,6.2,84,0.00,,---,0.00,0.00,VWS V14.01,2013-09-26 07:55:00,
2013-09-26 03:00:00,80.3,75.0,29.74,SE,141,0.0,8.2,84,0.00,,---,0.00,0.00,VWS V14.01,2013-09-26 08:00:00,
2013-09-26 03:05:00,80.1,74.8,29.74,SE,141,2.0,7.2,84,0.00,,---,0.00,0.00,VWS V14.01,2013-09-26 08:05:00,
2013-09-26 03:06:00,80.1,74.8,29.74,SE,141,0.0,7.2,84,0.00,,---,0.00,0.00,VWS V14.01,2013-09-26 08:06:00,
2013-09-26 03:10:00,80.1,74.8,29.74,SE,141,1.0,5.2,84,0.00,,---,0.00,0.00,VWS V14.01,2013-09-26 08:10:00,
2013-09-26 03:11:00,80.1,74.8,29.74,SE,141,2.0,5.2,84,0.00,,---,0.00,0.00,VWS V14.01,2013-09-26 08:11:00,
2013-09-26 03:15:00,80.1,74.8,29.74,SE,141,4.0,7.2,84,0.00,,---,0.00,0.00,VWS V14.01,2013-09-26 08:15:00,
2013-09-26 03:16:00,80.1,74.8,29.74,SE,141,3.0,7.2,84,0.00,,---,0.00,0.00,VWS V14.01,2013-09-26 08:16:00,
2013-09-26 03:20:00,80.5,75.2,29.74,SE,141,2.0,7.2,84,0.00,,---,0.00,0.00,VWS V14.01,2013-09-26 08:20:00,
2013-09-26 03:21:00,80.3,75.0,29.74,SE,141,4.0,7.2,84,0.00,,---,0.00,0.00,VWS V14.01,2013-09-26 08:21:00,
2013-09-26 03:25:00,80.9,75.3,29.74,SE,141,3.0,7.2,83,0.00,,---,0.00,0.00,VWS V14.01,2013-09-26 08:25:00,
2013-09-26 03:26:00,80.7,75.1,29.74,SE,141,1.0,7.2,83,0.00,,---,0.00,0.00,VWS V14.01,2013-09-26 08:26:00,
2013-09-26 03:30:00,80.7,75.1,29.74,SE,141,3.0,6.2,83,0.00,,---,0.00,0.00,VWS V14.01,2013-09-26 08:30:00,
2013-09-26 03:31:00,80.7,75.1,29.74,SE,141,1.0,5.2,83,0.00,,---,0.00,0.00,VWS V14.01,2013-09-26 08:31:00,
2013-09-26 03:35:00,80.5,75.2,29.74,SE,141,0.0,4.2,84,0.00,,---,0.00,0.00,VWS V14.01,2013-09-26 08:35:00,
2013-09-26 03:36:00,80.5,74.9,29.74,SE,141,0.0,4.2,83,0.00,,---,0.00,0.00,VWS V14.01,2013-09-26 08:36:00,
2013-09-26 03:40:00,80.1,74.8,29.74,SE,140,1.0,6.2,84,0.00,,---,0.00,0.00,VWS V14.01,2013-09-26 08:40:00,
2013-09-26 03:41:00,80.1,74.8,29.74,SE,141,2.0,6.2,84,0.00,,---,0.00,0.00,VWS V14.01,2013-09-26 08:41:00,
2013-09-26 03:45:00,80.1,74.8,29.73,SE,140,2.0,7.2,84,0.00,,---,0.00,0.00,VWS V14.01,2013-09-26 08:45:00,
2013-09-26 03:46:00,80.1,74.8,29.73,SE,141,1.0,7.2,84,0.00,,---,0.00,0.00,VWS V14.01,2013-09-26 08:46:00,
2013-09-26 03:50:00,80.1,75.2,29.73,SE,141,1.0,5.2,85,0.00,,---,0.00,0.00,VWS V14.01,2013-09-26 08:50:00,
2013-09-26 03:51:00,80.1,75.2,29.73,SE,141,1.0,5.2,85,0.00,,---,0.00,0.00,VWS V14.01,2013-09-26 08:51:00,
2013-09-26 03:55:00,79.9,75.0,29.73,SE,141,0.0,4.2,85,0.00,,---,0.00,0.00,VWS V14.01,2013-09-26 08:55:00,
2013-09-26 03:56:00,79.9,75.0,29.73,SE,141,0.0,4.2,85,0.00,,---,0.00,0.00,VWS V14.01,2013-09-26 08:56:00,
2013-09-26 04:00:00,79.9,75.3,29.73,SE,141,1.0,4.2,86,0.00,,---,0.00,0.00,VWS V14.01,2013-09-26 09:00:00,
2013-09-26 04:01:00,79.9,75.3,29.73,SE,141,0.0,4.2,86,0.00,,---,0.00,0.00,VWS V14.01,2013-09-26 09:01:00,
2013-09-26 04:05:00,79.8,75.2,29.73,SE,141,3.0,6.2,86,0.00,,---,0.00,0.00,VWS V14.01,2013-09-26 09:05:00,
2013-09-26 04:06:00,79.8,75.2,29.73,SE,141,1.0,4.2,86,0.00,,---,0.00,0.00,VWS V14.01,2013-09-26 09:06:00,
2013-09-26 04:10:00,79.8,75.6,29.73,SE,141,0.0,4.2,87,0.00,,---,0.00,0.00,VWS V14.01,2013-09-26 09:10:00,
2013-09-26 04:11:00,79.8,75.6,29.73,SE,141,0.0,4.2,87,0.00,,---,0.00,0.00,VWS V14.01,2013-09-26 09:11:00,
2013-09-26 04:15:00,79.8,75.6,29.73,SE,141,1.0,5.2,87,0.00,,---,0.00,0.00,VWS V14.01,2013-09-26 09:15:00,
2013-09-26 04:16:00,79.8,75.6,29.73,SE,141,1.0,5.2,87,0.00,,---,0.00,0.00,VWS V14.01,2013-09-26 09:16:00,
2013-09-26 04:20:00,79.8,75.6,29.73,SE,141,0.0,4.2,87,0.00,,---,0.00,0.00,VWS V14.01,2013-09-26 09:20:00,
2013-09-26 04:21:00,79.8,75.6,29.73,SE,141,0.0,4.2,87,0.00,,---,0.00,0.00,VWS V14.01,2013-09-26 09:21:00,
2013-09-26 04:25:00,79.8,75.6,29.73,SE,141,0.0,5.2,87,0.00,,---,0.00,0.00,VWS V14.01,2013-09-26 09:25:00,
2013-09-26 04:26:00,79.8,75.6,29.73,SE,141,1.0,5.2,87,0.00,,---,0.00,0.00,VWS V14.01,2013-09-26 09:26:00,
2013-09-26 04:30:00,79.6,75.4,29.73,SE,141,0.0,6.2,87,0.00,,---,0.00,0.00,VWS V14.01,2013-09-26 09:30:00,
2013-09-26 04:31:00,79.6,75.4,29.73,SE,141,1.0,6.2,87,0.00,,---,0.00,0.00,VWS V14.01,2013-09-26 09:31:00,
2013-09-26 04:35:00,79.6,75.4,29.73,SE,141,0.0,6.2,87,0.00,,---,0.00,0.00,VWS V14.01,2013-09-26 09:35:00,
2013-09-26 04:36:00,79.6,75.4,29.73,SE,141,0.0,6.2,87,0.00,,---,0.00,0.00,VWS V14.01,2013-09-26 09:36:00,
2013-09-26 04:40:00,79.8,75.6,29.73,SE,141,0.0,6.2,87,0.00,,---,0.00,0.00,VWS V14.01,2013-09-26 09:40:00,
2013-09-26 04:41:00,79.8,75.6,29.73,SE,141,0.0,6.2,87,0.00,,---,0.00,0.00,VWS V14.01,2013-09-26 09:41:00,
2013-09-26 04:45:00,79.6,75.4,29.73,SE,141,1.0,3.2,87,0.00,,---,0.00,0.00,VWS V14.01,2013-09-26 09:45:00,
2013-09-26 04:46:00,79.6,75.4,29.73,SE,141,1.0,3.2,87,0.00,,---,0.00,0.00,VWS V14.01,2013-09-26 09:46:00,
2013-09-26 04:50:00,79.6,75.4,29.73,SE,141,0.0,5.2,87,0.00,,---,0.00,0.00,VWS V14.01,2013-09-26 09:50:00,
2013-09-26 04:51:00,79.6,75.4,29.73,SE,141,0.0,5.2,87,0.00,,---,0.00,0.00,VWS V14.01,2013-09-26 09:51:00,
2013-09-26 04:55:00,79.9,75.7,29.73,SE,141,0.0,4.2,87,0.00,,---,0.00,0.00,VWS V14.01,2013-09-26 09:55:00,
2013-09-26 04:56:00,79.8,75.6,29.73,SE,141,0.0,4.2,87,0.00,,---,0.00,0.00,VWS V14.01,2013-09-26 09:56:00,
2013-09-26 05:00:00,80.1,75.5,29.73,SE,141,0.0,5.2,86,0.00,,---,0.00,0.00,VWS V14.01,2013-09-26 10:00:00,
2013-09-26 05:01:00,80.1,75.5,29.73,SE,141,0.0,5.2,86,0.00,,---,0.00,0.00,VWS V14.01,2013-09-26 10:01:00,
2013-09-26 05:05:00,80.1,75.5,29.73,SE,141,0.0,5.2,86,0.00,,---,0.00,0.00,VWS V14.01,2013-09-26 10:05:00,
2013-09-26 05:06:00,80.1,75.5,29.73,SE,141,1.0,5.2,86,0.00,,---,0.00,0.00,VWS V14.01,2013-09-26 10:06:00,
2013-09-26 05:10:00,80.3,75.7,29.73,SE,141,0.0,5.2,86,0.00,,---,0.00,0.00,VWS V14.01,2013-09-26 10:10:00,
2013-09-26 05:11:00,80.3,75.7,29.73,SE,141,1.0,5.2,86,0.00,,---,0.00,0.00,VWS V14.01,2013-09-26 10:11:00,
2013-09-26 05:15:00,80.3,75.7,29.73,SE,141,0.0,2.2,86,0.00,,---,0.00,0.00,VWS V14.01,2013-09-26 10:15:00,
2013-09-26 05:16:00,80.3,75.7,29.73,SE,141,0.0,2.2,86,0.00,,---,0.00,0.00,VWS V14.01,2013-09-26 10:16:00,
2013-09-26 05:20:00,80.1,75.5,29.73,SE,141,0.0,2.2,86,0.00,,---,0.00,0.00,VWS V14.01,2013-09-26 10:20:00,
2013-09-26 05:21:00,80.1,75.5,29.73,SE,141,0.0,2.2,86,0.00,,---,0.00,0.00,VWS V14.01,2013-09-26 10:21:00,
2013-09-26 05:25:00,79.8,75.6,29.73,SE,141,0.0,3.2,87,0.00,,---,0.00,0.00,VWS V14.01,2013-09-26 10:25:00,
2013-09-26 05:26:00,79.8,75.6,29.73,SE,141,1.0,3.2,87,0.00,,---,0.00,0.00,VWS V14.01,2013-09-26 10:26:00,
2013-09-26 05:30:00,79.8,75.6,29.73,SE,141,0.0,3.2,87,0.00,,---,0.00,0.00,VWS V14.01,2013-09-26 10:30:00,
2013-09-26 05:31:00,79.8,75.6,29.73,SE,141,0.0,3.2,87,0.00,,---,0.00,0.00,VWS V14.01,2013-09-26 10:31:00,
2013-09-26 05:35:00,79.8,75.9,29.73,SE,141,2.0,4.2,88,0.00,,---,0.00,0.00,VWS V14.01,2013-09-26 10:35:00,
2013-09-26 05:36:00,79.8,75.9,29.73,SE,141,2.0,4.2,88,0.00,,---,0.00,0.00,VWS V14.01,2013-09-26 10:36:00,
2013-09-26 05:40:00,79.9,76.0,29.73,SE,141,1.0,4.2,88,0.00,,---,0.00,0.00,VWS V14.01,2013-09-26 10:40:00,
2013-09-26 05:41:00,79.9,76.0,29.73,SE,141,2.0,4.2,88,0.00,,---,0.00,0.00,VWS V14.01,2013-09-26 10:41:00,
2013-09-26 05:45:00,79.8,75.9,29.73,SE,141,2.0,4.2,88,0.00,,---,0.00,0.00,VWS V14.01,2013-09-26 10:45:00,
2013-09-26 05:46:00,79.8,75.9,29.73,SE,141,3.0,4.2,88,0.00,,---,0.00,0.00,VWS V14.01,2013-09-26 10:46:00,
2013-09-26 05:50:00,79.9,76.0,29.73,SE,141,2.0,6.2,88,0.00,,---,0.00,0.00,VWS V14.01,2013-09-26 10:50:00,
2013-09-26 05:51:00,79.9,76.0,29.73,SE,141,2.0,6.2,88,0.00,,---,0.00,0.00,VWS V14.01,2013-09-26 10:51:00,
2013-09-26 05:55:00,79.9,76.0,29.73,SE,141,2.0,5.2,88,0.00,,---,0.00,0.00,VWS V14.01,2013-09-26 10:55:00,
2013-09-26 05:56:00,79.9,76.0,29.73,SE,141,1.0,5.2,88,0.00,,---,0.00,0.00,VWS V14.01,2013-09-26 10:56:00,
2013-09-26 06:00:00,79.9,76.0,29.74,SE,141,1.0,6.2,88,0.00,,---,0.00,0.00,VWS V14.01,2013-09-26 11:00:00,
2013-09-26 06:01:00,79.9,76.0,29.74,SE,141,2.0,6.2,88,0.00,,---,0.00,0.00,VWS V14.01,2013-09-26 11:01:00,
2013-09-26 06:05:00,79.9,76.0,29.74,SE,141,0.0,5.2,88,0.00,,---,0.00,0.00,VWS V14.01,2013-09-26 11:05:00,
2013-09-26 06:06:00,79.9,76.0,29.74,SE,141,2.0,5.2,88,0.00,,---,0.00,0.00,VWS V14.01,2013-09-26 11:06:00,
2013-09-26 06:10:00,79.9,76.0,29.74,SE,141,0.0,6.2,88,0.00,,---,0.00,0.00,VWS V14.01,2013-09-26 11:10:00,
2013-09-26 06:11:00,79.9,76.0,29.74,SE,141,2.0,6.2,88,0.00,,---,0.00,0.00,VWS V14.01,2013-09-26 11:11:00,
2013-09-26 06:15:00,79.9,76.0,29.75,SE,141,0.0,5.2,88,0.00,,---,0.00,0.00,VWS V14.01,2013-09-26 11:15:00,
2013-09-26 06:16:00,79.9,76.0,29.75,SE,141,0.0,5.2,88,0.00,,---,0.00,0.00,VWS V14.01,2013-09-26 11:16:00,
2013-09-26 06:20:00,79.9,76.0,29.75,SE,141,1.0,3.2,88,0.00,,---,0.00,0.00,VWS V14.01,2013-09-26 11:20:00,
2013-09-26 06:21:00,79.9,76.0,29.75,SE,141,2.0,3.2,88,0.00,,---,0.00,0.00,VWS V14.01,2013-09-26 11:21:00,
2013-09-26 06:25:00,79.9,76.0,29.75,SE,141,2.0,3.2,88,0.00,,---,0.00,0.00,VWS V14.01,2013-09-26 11:25:00,
2013-09-26 06:26:00,79.9,76.0,29.75,SE,141,2.0,3.2,88,0.00,,---,0.00,0.00,VWS V14.01,2013-09-26 11:26:00,
2013-09-26 06:30:00,80.1,76.2,29.75,SE,141,0.0,3.2,88,0.00,,---,0.00,0.00,VWS V14.01,2013-09-26 11:30:00,
2013-09-26 06:31:00,80.1,76.2,29.75,SE,141,0.0,3.2,88,0.00,,---,0.00,0.00,VWS V14.01,2013-09-26 11:31:00,
2013-09-26 06:35:00,80.3,76.1,29.75,SE,141,0.0,3.2,87,0.00,,---,0.00,0.00,VWS V14.01,2013-09-26 11:35:00,
2013-09-26 06:36:00,80.3,76.1,29.75,SE,141,0.0,3.2,87,0.00,,---,0.00,0.00,VWS V14.01,2013-09-26 11:36:00,
2013-09-26 06:40:00,80.5,76.3,29.75,SE,141,1.0,3.2,87,0.00,,---,0.00,0.00,VWS V14.01,2013-09-26 11:40:00,
2013-09-26 06:41:00,80.5,76.3,29.75,SE,141,1.0,3.2,87,0.00,,---,0.00,0.00,VWS V14.01,2013-09-26 11:41:00,
2013-09-26 06:45:00,80.3,76.1,29.75,SE,141,0.0,3.2,87,0.00,,---,0.00,0.00,VWS V14.01,2013-09-26 11:45:00,
2013-09-26 06:46:00,80.3,76.1,29.75,SE,141,0.0,3.2,87,0.00,,---,0.00,0.00,VWS V14.01,2013-09-26 11:46:00,
2013-09-26 06:50:00,79.9,76.0,29.75,SE,141,0.0,3.2,88,0.00,,---,0.00,0.00,VWS V14.01,2013-09-26 11:50:00,
2013-09-26 06:51:00,80.1,76.2,29.75,SE,141,1.0,3.2,88,0.00,,---,0.00,0.00,VWS V14.01,2013-09-26 11:51:00,
2013-09-26 06:55:00,79.9,76.0,29.75,SE,141,0.0,1.2,88,0.00,,---,0.00,0.00,VWS V14.01,2013-09-26 11:55:00,
2013-09-26 06:56:00,79.9,76.0,29.75,SE,141,0.0,1.2,88,0.00,,---,0.00,0.00,VWS V14.01,2013-09-26 11:56:00,
2013-09-26 07:00:00,79.8,75.9,29.75,SE,141,0.0,2.2,88,0.00,,---,0.00,0.00,VWS V14.01,2013-09-26 12:00:00,
2013-09-26 07:01:00,79.8,75.9,29.75,SE,141,0.0,2.2,88,0.00,,---,0.00,0.00,VWS V14.01,2013-09-26 12:01:00,
2013-09-26 07:05:00,79.6,76.1,29.75,SE,141,0.0,1.2,89,0.00,,---,0.00,0.00,VWS V14.01,2013-09-26 12:05:00,
2013-09-26 07:06:00,79.6,76.1,29.75,SE,141,0.0,1.2,89,0.00,,---,0.00,0.00,VWS V14.01,2013-09-26 12:06:00,
2013-09-26 07:10:00,79.6,76.1,29.75,SE,141,0.0,1.2,89,0.00,,---,0.00,0.00,VWS V14.01,2013-09-26 12:10:00,
2013-09-26 07:11:00,79.6,76.1,29.75,SE,141,0.0,1.2,89,0.00,,---,0.00,0.00,VWS V14.01,2013-09-26 12:11:00,
2013-09-26 07:15:00,79.4,75.9,29.75,SE,141,0.0,1.2,89,0.00,,---,0.00,0.00,VWS V14.01,2013-09-26 12:15:00,
2013-09-26 07:16:00,79.4,75.9,29.75,SE,141,0.0,1.2,89,0.00,,---,0.00,0.00,VWS V14.01,2013-09-26 12:16:00,
2013-09-26 07:20:00,79.4,76.2,29.75,SE,141,0.0,1.2,90,0.00,,---,0.00,0.00,VWS V14.01,2013-09-26 12:20:00,
2013-09-26 07:21:00,79.4,76.2,29.75,SE,141,0.0,1.2,90,0.00,,---,0.00,0.00,VWS V14.01,2013-09-26 12:21:00,
2013-09-26 07:25:00,79.4,76.2,29.75,SE,141,0.0,2.2,90,0.00,,---,0.00,5.00,VWS V14.01,2013-09-26 12:25:00,
2013-09-26 07:26:00,79.4,76.2,29.75,SE,141,0.0,2.2,90,0.00,,---,0.00,5.00,VWS V14.01,2013-09-26 12:26:00,
2013-09-26 07:30:00,79.4,76.2,29.75,SE,141,0.0,3.2,90,0.00,,---,0.00,9.00,VWS V14.01,2013-09-26 12:30:00,
2013-09-26 07:31:00,79.4,76.2,29.75,SE,141,0.0,3.2,90,0.00,,---,0.00,9.00,VWS V14.01,2013-09-26 12:31:00,
2013-09-26 07:35:00,79.4,76.6,29.75,SE,141,0.0,1.2,91,0.00,,---,0.00,14.00,VWS V14.01,2013-09-26 12:35:00,
2013-09-26 07:36:00,79.4,76.6,29.75,SE,141,0.0,1.2,91,0.00,,---,0.00,14.00,VWS V14.01,2013-09-26 12:36:00,
2013-09-26 07:40:00,79.6,76.8,29.75,SE,141,0.0,1.2,91,0.00,,---,0.00,30.00,VWS V14.01,2013-09-26 12:40:00,
2013-09-26 07:41:00,79.6,76.8,29.75,SE,141,0.0,1.2,91,0.00,,---,0.00,25.00,VWS V14.01,2013-09-26 12:41:00,
2013-09-26 07:45:00,79.8,76.9,29.75,SE,141,0.0,1.2,91,0.00,,---,0.00,51.00,VWS V14.01,2013-09-26 12:45:00,
2013-09-26 07:46:00,79.8,76.9,29.75,SE,141,0.0,1.2,91,0.00,,---,0.00,51.00,VWS V14.01,2013-09-26 12:46:00,
2013-09-26 07:50:00,80.3,77.4,29.75,SE,141,0.0,3.2,91,0.00,,---,0.00,54.00,VWS V14.01,2013-09-26 12:50:00,
2013-09-26 07:51:00,80.1,77.2,29.75,SE,141,1.0,3.2,91,0.00,,---,0.00,54.00,VWS V14.01,2013-09-26 12:51:00,
2013-09-26 07:55:00,80.3,77.1,29.75,SE,141,3.0,5.2,90,0.00,,---,0.00,14.00,VWS V14.01,2013-09-26 12:55:00,
2013-09-26 07:56:00,80.3,77.1,29.75,SE,141,3.0,5.2,90,0.00,,---,0.00,18.00,VWS V14.01,2013-09-26 12:56:00,
2013-09-26 08:00:00,79.9,76.7,29.76,SE,141,3.0,7.2,90,0.00,,---,0.00,12.00,VWS V14.01,2013-09-26 13:00:00,
2013-09-26 08:01:00,79.9,76.7,29.76,SE,141,4.0,7.2,90,0.00,,---,0.00,12.00,VWS V14.01,2013-09-26 13:01:00,
2013-09-26 08:05:00,79.6,76.4,29.76,SE,141,0.0,5.2,90,0.00,,---,0.00,28.00,VWS V14.01,2013-09-26 13:05:00,
2013-09-26 08:06:00,79.8,76.6,29.76,SE,141,3.0,5.2,90,0.00,,---,0.00,28.00,VWS V14.01,2013-09-26 13:06:00,
2013-09-26 08:10:00,79.4,76.6,29.76,SE,141,0.0,3.2,91,0.00,,---,0.00,26.00,VWS V14.01,2013-09-26 13:10:00,
2013-09-26 08:11:00,79.4,76.6,29.76,SE,141,1.0,3.2,91,0.00,,---,0.00,25.00,VWS V14.01,2013-09-26 13:11:00,
2013-09-26 08:15:00,79.2,76.3,29.76,SE,141,0.0,3.2,91,0.00,,---,0.00,25.00,VWS V14.01,2013-09-26 13:15:00,
2013-09-26 08:16:00,79.2,76.3,29.76,SE,141,2.0,3.2,91,0.00,,---,0.00,25.00,VWS V14.01,2013-09-26 13:16:00,
2013-09-26 08:20:00,79.0,76.5,29.76,SE,141,0.0,3.2,92,0.00,,---,0.00,32.00,VWS V14.01,2013-09-26 13:20:00,
2013-09-26 08:21:00,79.0,76.5,29.76,SE,141,1.0,3.2,92,0.00,,---,0.00,32.00,VWS V14.01,2013-09-26 13:21:00,
2013-09-26 08:25:00,79.0,76.5,29.76,SE,141,0.0,2.2,92,0.00,,---,0.00,42.00,VWS V14.01,2013-09-26 13:25:00,
2013-09-26 08:26:00,79.0,76.5,29.76,SE,141,0.0,2.2,92,0.00,,---,0.00,42.00,VWS V14.01,2013-09-26 13:26:00,
2013-09-26 08:30:00,79.0,76.5,29.77,SE,141,1.0,4.2,92,0.00,,---,0.00,165.00,VWS V14.01,2013-09-26 13:30:00,
2013-09-26 08:31:00,79.0,76.5,29.77,SE,141,0.0,4.2,92,0.00,,---,0.00,160.00,VWS V14.01,2013-09-26 13:31:00,
2013-09-26 08:35:00,79.2,76.7,29.77,SE,141,0.0,3.2,92,0.00,,---,0.00,169.00,VWS V14.01,2013-09-26 13:35:00,
2013-09-26 08:36:00,79.2,76.7,29.77,SE,141,1.0,3.2,92,0.00,,---,0.00,169.00,VWS V14.01,2013-09-26 13:36:00,
2013-09-26 08:40:00,79.2,76.7,29.77,SE,141,2.0,5.2,92,0.00,,---,0.00,58.00,VWS V14.01,2013-09-26 13:40:00,
2013-09-26 08:41:00,79.2,76.7,29.77,SE,141,3.0,5.2,92,0.00,,---,0.00,58.00,VWS V14.01,2013-09-26 13:41:00,
2013-09-26 08:45:00,79.2,76.7,29.77,SE,141,3.0,5.2,92,0.00,,---,0.00,91.00,VWS V14.01,2013-09-26 13:45:00,
2013-09-26 08:46:00,79.2,76.7,29.77,SE,141,2.0,5.2,92,0.00,,---,0.00,204.00,VWS V14.01,2013-09-26 13:46:00,
2013-09-26 08:50:00,79.4,76.9,29.77,SE,141,0.0,4.2,92,0.00,,---,0.00,251.00,VWS V14.01,2013-09-26 13:50:00,
2013-09-26 08:51:00,79.4,76.9,29.77,SE,141,1.0,4.2,92,0.00,,---,0.00,248.00,VWS V14.01,2013-09-26 13:51:00,
2013-09-26 08:55:00,79.9,77.4,29.77,SE,141,0.0,4.2,92,0.00,,---,0.00,262.00,VWS V14.01,2013-09-26 13:55:00,
2013-09-26 08:56:00,79.9,77.4,29.77,SE,141,0.0,4.2,92,0.00,,---,0.00,262.00,VWS V14.01,2013-09-26 13:56:00,
2013-09-26 09:00:00,80.3,77.4,29.78,SE,141,1.0,5.2,91,0.00,,---,0.00,278.00,VWS V14.01,2013-09-26 14:00:00,
2013-09-26 09:01:00,80.3,77.4,29.78,SE,141,1.0,5.2,91,0.00,,---,0.00,276.00,VWS V14.01,2013-09-26 14:01:00,
2013-09-26 09:05:00,80.9,77.4,29.78,SE,141,4.0,7.2,89,0.00,,---,0.00,301.00,VWS V14.01,2013-09-26 14:05:00,
2013-09-26 09:06:00,80.7,77.2,29.78,SE,141,3.0,7.2,89,0.00,,---,0.00,295.00,VWS V14.01,2013-09-26 14:06:00,
2013-09-26 09:10:00,81.1,77.2,29.78,SE,141,0.0,6.2,88,0.00,,---,0.00,320.00,VWS V14.01,2013-09-26 14:10:00,
2013-09-26 09:11:00,81.1,77.2,29.78,SE,141,2.0,6.2,88,0.00,,---,0.00,318.00,VWS V14.01,2013-09-26 14:11:00,
2013-09-26 09:15:00,81.6,77.0,29.78,SE,141,1.0,5.2,86,0.00,,---,0.00,343.00,VWS V14.01,2013-09-26 14:15:00,
2013-09-26 09:16:00,81.6,77.0,29.78,SE,141,4.0,5.2,86,0.00,,---,0.00,343.00,VWS V14.01,2013-09-26 14:16:00,
2013-09-26 09:20:00,81.8,76.5,29.78,SE,141,4.0,6.2,84,0.00,,---,0.00,373.00,VWS V14.01,2013-09-26 14:20:00,
2013-09-26 09:21:00,81.8,76.5,29.78,SE,141,5.0,6.2,84,0.00,,---,0.00,366.00,VWS V14.01,2013-09-26 14:21:00,
2013-09-26 09:25:00,82.2,76.9,29.78,SSE,150,0.0,8.2,84,0.00,,---,0.00,392.00,VWS V14.01,2013-09-26 14:25:00,
2013-09-26 09:26:00,82.2,76.9,29.78,SSE,150,3.0,8.2,84,0.00,,---,0.00,388.00,VWS V14.01,2013-09-26 14:26:00,
2013-09-26 09:30:00,82.6,76.9,29.79,SSE,152,6.0,7.2,83,0.00,,---,0.00,436.00,VWS V14.01,2013-09-26 14:30:00,
2013-09-26 09:31:00,82.6,76.9,29.79,SSE,152,3.0,7.2,83,0.00,,---,0.00,436.00,VWS V14.01,2013-09-26 14:31:00,
2013-09-26 09:35:00,82.8,76.8,29.79,SSE,153,5.0,7.2,82,0.00,,---,0.00,413.00,VWS V14.01,2013-09-26 14:35:00,
2013-09-26 09:36:00,82.6,76.6,29.79,SSE,153,3.0,7.2,82,0.00,,---,0.00,443.00,VWS V14.01,2013-09-26 14:36:00,
2013-09-26 09:40:00,83.0,76.9,29.79,SSE,161,1.0,8.2,82,0.00,,---,0.00,443.00,VWS V14.01,2013-09-26 14:40:00,
2013-09-26 09:41:00,82.8,76.4,29.79,SSE,161,3.0,8.2,81,0.00,,---,0.00,441.00,VWS V14.01,2013-09-26 14:41:00,
2013-09-26 09:45:00,83.2,76.8,29.79,South,175,4.0,8.2,81,0.00,,---,0.00,459.00,VWS V14.01,2013-09-26 14:45:00,
2013-09-26 09:50:00,83.4,76.6,29.79,South,175,2.0,8.2,80,0.00,,---,0.00,517.00,VWS V14.01,2013-09-26 14:50:00,
2013-09-26 09:55:00,83.8,77.0,29.79,South,175,0.0,8.2,80,0.00,,---,0.00,227.00,VWS V14.01,2013-09-26 14:55:00,
2013-09-26 10:00:00,84.0,76.4,29.80,South,177,2.0,8.2,78,0.00,,---,0.00,554.00,VWS V14.01,2013-09-26 15:00:00,
2013-09-26 10:05:00,84.7,77.1,29.80,South,176,4.0,8.2,78,0.00,,---,0.00,580.00,VWS V14.01,2013-09-26 15:05:00,
2013-09-26 10:10:00,84.7,76.7,29.80,South,178,5.0,6.2,77,0.00,,---,0.00,114.00,VWS V14.01,2013-09-26 15:10:00,
2013-09-26 10:15:00,84.3,75.9,29.80,South,179,5.0,8.2,76,0.00,,---,0.00,617.00,VWS V14.01,2013-09-26 15:15:00,
2013-09-26 10:20:00,84.3,75.9,29.80,South,180,0.0,7.2,76,0.00,,---,0.00,587.00,VWS V14.01,2013-09-26 15:20:00,
2013-09-26 10:25:00,84.5,75.7,29.80,South,180,3.0,7.2,75,0.00,,---,0.00,225.00,VWS V14.01,2013-09-26 15:25:00,
2013-09-26 10:30:00,84.3,75.9,29.80,South,180,3.0,7.2,76,0.00,,---,0.00,243.00,VWS V14.01,2013-09-26 15:30:00,
2013-09-26 10:35:00,84.1,75.7,29.80,South,180,4.0,8.2,76,0.00,,---,0.00,279.00,VWS V14.01,2013-09-26 15:35:00,
2013-09-26 10:40:00,84.1,75.7,29.80,South,185,6.0,9.2,76,0.00,,---,0.00,766.00,VWS V14.01,2013-09-26 15:40:00,
2013-09-26 10:45:00,84.9,75.3,29.80,South,186,3.0,8.2,73,0.00,,---,0.00,786.00,VWS V14.01,2013-09-26 15:45:00,
2013-09-26 10:50:00,85.1,75.9,29.80,South,186,2.0,5.2,74,0.00,,---,0.00,376.00,VWS V14.01,2013-09-26 15:50:00,
2013-09-26 10:55:00,85.3,75.7,29.80,South,186,0.0,5.2,73,0.00,,---,0.00,246.00,VWS V14.01,2013-09-26 15:55:00,
2013-09-26 11:00:00,85.3,76.1,29.80,South,186,4.0,5.2,74,0.00,,---,0.00,904.00,VWS V14.01,2013-09-26 16:00:00,
2013-09-26 11:05:00,85.5,76.3,29.80,South,186,1.0,6.2,74,0.00,,---,0.00,385.00,VWS V14.01,2013-09-26 16:05:00,
2013-09-26 11:10:00,85.5,75.9,29.80,South,186,4.0,6.2,73,0.00,,---,0.00,362.00,VWS V14.01,2013-09-26 16:10:00,
2013-09-26 11:15:00,85.3,75.7,29.80,South,187,3.0,10.2,73,0.00,,---,0.00,450.00,VWS V14.01,2013-09-26 16:15:00,
2013-09-26 11:20:00,85.7,76.5,29.80,South,187,0.0,5.2,74,0.00,,---,0.00,911.00,VWS V14.01,2013-09-26 16:20:00,
2013-09-26 11:25:00,87.2,75.8,29.80,South,186,1.0,7.2,69,0.00,,---,0.00,816.00,VWS V14.01,2013-09-26 16:25:00,
2013-09-26 11:30:00,88.0,74.8,29.80,SSE,150,4.0,10.2,65,0.00,,---,0.00,796.00,VWS V14.01,2013-09-26 16:30:00,
2013-09-26 11:35:00,88.2,75.9,29.80,SSE,148,3.0,7.2,67,0.00,,---,0.00,821.00,VWS V14.01,2013-09-26 16:35:00,
2013-09-26 11:40:00,88.8,76.0,29.80,SE,146,4.0,8.2,66,0.00,,---,0.00,831.00,VWS V14.01,2013-09-26 16:40:00,
2013-09-26 11:45:00,88.6,75.3,29.80,SE,144,6.0,10.2,65,0.00,,---,0.00,886.00,VWS V14.01,2013-09-26 16:45:00,
2013-09-26 11:50:00,88.8,75.5,29.80,SE,143,6.0,8.2,65,0.00,,---,0.00,877.00,VWS V14.01,2013-09-26 16:50:00,
2013-09-26 11:55:00,88.2,75.0,29.80,SE,143,1.0,11.2,65,0.00,,---,0.00,316.00,VWS V14.01,2013-09-26 16:55:00,
2013-09-26 12:00:00,88.2,75.4,29.80,SE,138,6.0,8.2,66,0.00,,---,0.00,308.00,VWS V14.01,2013-09-26 17:00:00,
2013-09-26 12:05:00,88.0,75.7,29.80,SE,138,5.0,11.2,67,0.00,,---,0.00,311.00,VWS V14.01,2013-09-26 17:05:00,
2013-09-26 12:10:00,87.4,75.6,29.80,SE,144,2.0,8.2,68,0.00,,---,0.00,657.00,VWS V14.01,2013-09-26 17:10:00,
2013-09-26 12:15:00,87.6,75.7,29.80,SE,144,5.0,9.2,68,0.00,,---,0.00,998.00,VWS V14.01,2013-09-26 17:15:00,
2013-09-26 12:20:00,87.8,76.4,29.80,SSE,147,2.0,8.2,69,0.00,,---,0.00,420.00,VWS V14.01,2013-09-26 17:20:00,
2013-09-26 12:25:00,88.0,76.1,29.80,SE,138,3.0,12.2,68,0.00,,---,0.00,933.00,VWS V14.01,2013-09-26 17:25:00,
2013-09-26 12:30:00,88.2,76.3,29.79,SSE,149,5.0,11.2,68,0.00,,---,0.00,962.00,VWS V14.01,2013-09-26 17:30:00,
2013-09-26 12:35:00,89.5,77.1,29.79,SE,138,7.0,9.2,67,0.00,,---,0.00,374.00,VWS V14.01,2013-09-26 17:35:00,
2013-09-26 12:40:00,89.5,76.7,29.79,SSE,164,7.0,13.2,66,0.00,,---,0.00,1093.00,VWS V14.01,2013-09-26 17:40:00,
2013-09-26 12:45:00,88.4,75.6,29.79,SSE,148,3.0,11.2,66,0.00,,---,0.00,359.00,VWS V14.01,2013-09-26 17:45:00,
2013-09-26 12:50:00,88.2,75.4,29.79,SSE,160,6.0,13.2,66,0.00,,---,0.00,376.00,VWS V14.01,2013-09-26 17:50:00,
2013-09-26 12:55:00,87.8,75.5,29.79,SSE,157,5.0,12.2,67,0.00,,---,0.00,404.00,VWS V14.01,2013-09-26 17:55:00,
2013-09-26 13:00:00,87.8,75.5,29.79,SSE,155,6.0,10.2,67,0.00,,---,0.00,1137.00,VWS V14.01,2013-09-26 18:00:00,
2013-09-26 13:05:00,88.0,75.2,29.79,SSE,161,4.0,10.2,66,0.00,,---,0.00,1137.00,VWS V14.01,2013-09-26 18:05:00,
2013-09-26 13:10:00,89.0,75.7,29.79,SSE,148,3.0,10.2,65,0.00,,---,0.00,294.00,VWS V14.01,2013-09-26 18:10:00,
2013-09-26 13:15:00,88.6,75.8,29.78,SSE,150,5.0,15.2,66,0.00,,---,0.00,914.00,VWS V14.01,2013-09-26 18:15:00,
2013-09-26 13:20:00,88.6,74.9,29.78,SE,146,9.0,12.2,64,0.00,,---,0.00,874.00,VWS V14.01,2013-09-26 18:20:00,
2013-09-26 13:25:00,88.6,75.3,29.78,ESE,123,10.0,12.2,65,0.00,,---,0.00,870.00,VWS V14.01,2013-09-26 18:25:00,
2013-09-26 13:30:00,89.0,75.7,29.78,SE,135,9.0,11.2,65,0.00,,---,0.00,870.00,VWS V14.01,2013-09-26 18:30:00,
2013-09-26 13:35:00,89.3,75.5,29.78,SSE,151,4.0,12.2,64,0.00,,---,0.00,867.00,VWS V14.01,2013-09-26 18:35:00,
2013-09-26 13:36:00,89.3,75.1,29.78,South,173,3.0,12.2,63,0.00,,---,0.00,867.00,VWS V14.01,2013-09-26 18:36:00,
2013-09-26 13:40:00,89.3,75.5,29.78,SE,124,4.0,11.2,64,0.00,,---,0.00,867.00,VWS V14.01,2013-09-26 18:40:00,
2013-09-26 13:41:00,89.3,75.5,29.78,SE,124,7.0,11.2,64,0.00,,---,0.00,867.00,VWS V14.01,2013-09-26 18:41:00,
2013-09-26 13:45:00,89.7,75.4,29.77,SSE,166,2.0,11.2,63,0.00,,---,0.00,867.00,VWS V14.01,2013-09-26 18:45:00,
2013-09-26 13:46:00,89.7,75.4,29.77,SSE,166,1.0,11.2,63,0.00,,---,0.00,863.00,VWS V14.01,2013-09-26 18:46:00,
2013-09-26 13:50:00,89.3,75.1,29.77,SSE,160,4.0,10.2,63,0.00,,---,0.00,863.00,VWS V14.01,2013-09-26 18:50:00,
2013-09-26 13:51:00,89.3,75.1,29.77,SSE,147,4.0,10.2,63,0.00,,---,0.00,863.00,VWS V14.01,2013-09-26 18:51:00,
2013-09-26 13:55:00,89.0,74.8,29.77,SE,142,11.0,15.2,63,0.00,,---,0.00,861.00,VWS V14.01,2013-09-26 18:55:00,
2013-09-26 13:56:00,89.0,74.8,29.77,ESE,114,6.0,15.2,63,0.00,,---,0.00,861.00,VWS V14.01,2013-09-26 18:56:00,
2013-09-26 14:00:00,89.7,75.4,29.76,ESE,111,5.0,12.2,63,0.00,,---,0.00,860.00,VWS V14.01,2013-09-26 19:00:00,
2013-09-26 14:01:00,89.5,75.2,29.76,East,100,7.0,12.2,63,0.00,,---,0.00,858.00,VWS V14.01,2013-09-26 19:01:00,
2013-09-26 14:05:00,89.0,74.8,29.76,SE,145,3.0,13.2,63,0.00,,---,0.00,856.00,VWS V14.01,2013-09-26 19:05:00,
2013-09-26 14:06:00,89.0,74.8,29.76,South,183,7.0,13.2,63,0.00,,---,0.00,856.00,VWS V14.01,2013-09-26 19:06:00,
2013-09-26 14:10:00,89.5,73.8,29.76,SSW,192,3.0,14.2,60,0.00,,---,0.00,851.00,VWS V14.01,2013-09-26 19:10:00,
2013-09-26 14:11:00,89.3,74.1,29.76,SE,137,9.0,14.2,61,0.00,,---,0.00,851.00,VWS V14.01,2013-09-26 19:11:00,
2013-09-26 14:15:00,89.9,74.2,29.76,SE,125,7.0,12.2,60,0.00,,---,0.00,844.00,VWS V14.01,2013-09-26 19:15:00,
2013-09-26 14:16:00,89.9,74.2,29.76,ESE,113,8.0,12.2,60,0.00,,---,0.00,844.00,VWS V14.01,2013-09-26 19:16:00,
2013-09-26 14:20:00,89.0,72.8,29.76,SE,136,5.0,14.2,59,0.00,,---,0.00,837.00,VWS V14.01,2013-09-26 19:20:00,
2013-09-26 14:21:00,89.3,73.1,29.76,SE,130,5.0,14.2,59,0.00,,---,0.00,840.00,VWS V14.01,2013-09-26 19:21:00,
2013-09-26 14:25:00,89.0,74.3,29.76,SE,124,3.0,13.2,62,0.00,,---,0.00,835.00,VWS V14.01,2013-09-26 19:25:00,
2013-09-26 14:26:00,88.8,74.1,29.76,SE,138,6.0,13.2,62,0.00,,---,0.00,835.00,VWS V14.01,2013-09-26 19:26:00,
2013-09-26 14:30:00,89.3,74.1,29.76,SE,145,5.0,13.2,61,0.00,,---,0.00,828.00,VWS V14.01,2013-09-26 19:30:00,
2013-09-26 14:31:00,89.3,74.1,29.76,ESE,117,4.0,13.2,61,0.00,,---,0.00,828.00,VWS V14.01,2013-09-26 19:31:00,
2013-09-26 14:35:00,89.3,74.6,29.76,SSE,153,6.0,10.2,62,0.00,,---,0.00,821.00,VWS V14.01,2013-09-26 19:35:00,
2013-09-26 14:36:00,89.3,74.6,29.76,South,172,4.0,10.2,62,0.00,,---,0.00,821.00,VWS V14.01,2013-09-26 19:36:00,
2013-09-26 14:40:00,89.3,75.1,29.76,SE,134,5.0,13.2,63,0.00,,---,0.00,810.00,VWS V14.01,2013-09-26 19:40:00,
2013-09-26 14:41:00,89.3,75.1,29.76,SSE,155,2.0,13.2,63,0.00,,---,0.00,812.00,VWS V14.01,2013-09-26 19:41:00,
2013-09-26 14:45:00,89.5,75.2,29.75,SSE,168,2.0,11.2,63,0.00,,---,0.00,807.00,VWS V14.01,2013-09-26 19:45:00,
2013-09-26 14:46:00,89.5,75.2,29.75,SSW,194,5.0,11.2,63,0.00,,---,0.00,807.00,VWS V14.01,2013-09-26 19:46:00,
2013-09-26 14:50:00,88.8,75.1,29.75,SSE,160,5.0,12.2,64,0.00,,---,0.00,800.00,VWS V14.01,2013-09-26 19:50:00,
2013-09-26 14:51:00,89.0,75.2,29.75,SSE,163,6.0,12.2,64,0.00,,---,0.00,800.00,VWS V14.01,2013-09-26 19:51:00,
2013-09-26 14:55:00,88.8,74.6,29.75,SE,141,6.0,12.2,63,0.00,,---,0.00,791.00,VWS V14.01,2013-09-26 19:55:00,
2013-09-26 14:56:00,88.8,75.1,29.75,SSE,150,6.0,12.2,64,0.00,,---,0.00,793.00,VWS V14.01,2013-09-26 19:56:00,
2013-09-26 15:00:00,89.0,75.2,29.75,South,184,4.0,11.2,64,0.00,,---,0.00,780.00,VWS V14.01,2013-09-26 20:00:00,
2013-09-26 15:01:00,89.0,75.2,29.75,SSE,153,7.0,11.2,64,0.00,,---,0.00,779.00,VWS V14.01,2013-09-26 20:01:00,
2013-09-26 15:05:00,89.0,74.8,29.75,SE,126,5.0,13.2,63,0.00,,---,0.00,773.00,VWS V14.01,2013-09-26 20:05:00,
2013-09-26 15:06:00,89.0,74.8,29.75,SE,137,9.0,13.2,63,0.00,,---,0.00,773.00,VWS V14.01,2013-09-26 20:06:00,
2013-09-26 15:10:00,89.5,75.2,29.75,SE,137,12.0,14.2,63,0.00,,---,0.00,763.00,VWS V14.01,2013-09-26 20:10:00,
2013-09-26 15:11:00,89.3,75.1,29.75,SSE,155,3.0,14.2,63,0.00,,---,0.00,765.00,VWS V14.01,2013-09-26 20:11:00,
2013-09-26 15:15:00,89.5,75.7,29.75,SSE,147,4.0,13.2,64,0.00,,---,0.00,754.00,VWS V14.01,2013-09-26 20:15:00,
2013-09-26 15:16:00,89.5,75.2,29.75,East,94,6.0,13.2,63,0.00,,---,0.00,752.00,VWS V14.01,2013-09-26 20:16:00,
2013-09-26 15:20:00,89.3,75.1,29.75,SE,132,6.0,12.2,63,0.00,,---,0.00,744.00,VWS V14.01,2013-09-26 20:20:00,
2013-09-26 15:21:00,89.3,75.1,29.75,SSE,161,7.0,12.2,63,0.00,,---,0.00,744.00,VWS V14.01,2013-09-26 20:21:00,
2013-09-26 15:25:00,89.5,75.2,29.75,SE,127,7.0,13.2,63,0.00,,---,0.00,728.00,VWS V14.01,2013-09-26 20:25:00,
2013-09-26 15:26:00,89.5,75.2,29.75,SSE,157,9.0,13.2,63,0.00,,---,0.00,731.00,VWS V14.01,2013-09-26 20:26:00,
2013-09-26 15:30:00,88.8,75.1,29.75,SE,138,12.0,15.2,64,0.00,,---,0.00,717.00,VWS V14.01,2013-09-26 20:30:00,
2013-09-26 15:31:00,88.8,74.6,29.75,SE,131,14.0,15.2,63,0.00,,---,0.00,719.00,VWS V14.01,2013-09-26 20:31:00,
2013-09-26 15:35:00,89.0,75.2,29.75,SE,146,4.0,14.2,64,0.00,,---,0.00,707.00,VWS V14.01,2013-09-26 20:35:00,
2013-09-26 15:36:00,89.0,75.2,29.75,SSE,148,7.0,14.2,64,0.00,,---,0.00,707.00,VWS V14.01,2013-09-26 20:36:00,
2013-09-26 15:40:00,88.4,75.1,29.75,ESE,107,7.0,13.2,65,0.00,,---,0.00,696.00,VWS V14.01,2013-09-26 20:40:00,
2013-09-26 15:41:00,88.4,75.1,29.75,SE,130,9.0,13.2,65,0.00,,---,0.00,696.00,VWS V14.01,2013-09-26 20:41:00,
2013-09-26 15:45:00,88.4,76.1,29.75,ESE,105,3.0,12.2,67,0.00,,---,0.00,680.00,VWS V14.01,2013-09-26 20:45:00,
2013-09-26 15:46:00,88.4,75.6,29.75,ESE,108,6.0,12.2,66,0.00,,---,0.00,684.00,VWS V14.01,2013-09-26 20:46:00,
2013-09-26 15:50:00,87.8,75.5,29.75,SE,135,6.0,14.2,67,0.00,,---,0.00,666.00,VWS V14.01,2013-09-26 20:50:00,
2013-09-26 15:51:00,88.0,75.7,29.75,SE,126,7.0,14.2,67,0.00,,---,0.00,670.00,VWS V14.01,2013-09-26 20:51:00,
2013-09-26 15:55:00,87.4,75.6,29.75,ESE,119,6.0,12.2,68,0.00,,---,0.00,657.00,VWS V14.01,2013-09-26 20:55:00,
2013-09-26 15:56:00,87.4,75.6,29.75,East,99,6.0,12.2,68,0.00,,---,0.00,657.00,VWS V14.01,2013-09-26 20:56:00,
2013-09-26 16:00:00,87.6,75.3,29.75,SE,138,11.0,13.2,67,0.00,,---,0.00,645.00,VWS V14.01,2013-09-26 21:00:00,
2013-09-26 16:01:00,87.4,75.1,29.75,East,86,6.0,13.2,67,0.00,,---,0.00,645.00,VWS V14.01,2013-09-26 21:01:00,
2013-09-26 16:05:00,88.2,76.3,29.75,ESE,118,4.0,13.2,68,0.00,,---,0.00,689.00,VWS V14.01,2013-09-26 21:05:00,
2013-09-26 16:06:00,88.0,76.1,29.75,East,92,2.0,13.2,68,0.00,,---,0.00,663.00,VWS V14.01,2013-09-26 21:06:00,
2013-09-26 16:10:00,88.4,76.1,29.75,East,99,5.0,14.2,67,0.00,,---,0.00,624.00,VWS V14.01,2013-09-26 21:10:00,
2013-09-26 16:11:00,88.4,75.6,29.75,SE,128,6.0,14.2,66,0.00,,---,0.00,631.00,VWS V14.01,2013-09-26 21:11:00,
2013-09-26 16:15:00,88.0,76.1,29.75,ESE,113,6.0,12.2,68,0.00,,---,0.00,629.00,VWS V14.01,2013-09-26 21:15:00,
2013-09-26 16:16:00,88.0,76.1,29.75,SE,126,5.0,12.2,68,0.00,,---,0.00,629.00,VWS V14.01,2013-09-26 21:16:00,
2013-09-26 16:20:00,88.0,76.1,29.75,SE,139,6.0,11.2,68,0.00,,---,0.00,621.00,VWS V14.01,2013-09-26 21:20:00,
2013-09-26 16:21:00,88.0,76.1,29.75,East,80,6.0,11.2,68,0.00,,---,0.00,621.00,VWS V14.01,2013-09-26 21:21:00,
2013-09-26 16:25:00,88.2,76.3,29.75,ESE,121,9.0,12.2,68,0.00,,---,0.00,589.00,VWS V14.01,2013-09-26 21:25:00,
2013-09-26 16:26:00,88.2,75.9,29.75,ESE,123,4.0,12.2,67,0.00,,---,0.00,605.00,VWS V14.01,2013-09-26 21:26:00,
2013-09-26 16:30:00,88.6,76.2,29.75,ESE,119,7.0,14.2,67,0.00,,---,0.00,578.00,VWS V14.01,2013-09-26 21:30:00,
2013-09-26 16:31:00,88.6,76.2,29.75,East,99,6.0,14.2,67,0.00,,---,0.00,578.00,VWS V14.01,2013-09-26 21:31:00,
2013-09-26 16:35:00,88.6,75.8,29.75,ESE,122,4.0,15.2,66,0.00,,---,0.00,591.00,VWS V14.01,2013-09-26 21:35:00,
2013-09-26 16:36:00,88.6,75.8,29.75,SE,131,5.0,15.2,66,0.00,,---,0.00,591.00,VWS V14.01,2013-09-26 21:36:00,
2013-09-26 16:40:00,87.6,76.2,29.75,East,101,4.0,13.2,69,0.00,,---,0.00,527.00,VWS V14.01,2013-09-26 21:40:00,
2013-09-26 16:41:00,87.6,76.2,29.75,East,101,5.0,13.2,69,0.00,,---,0.00,527.00,VWS V14.01,2013-09-26 21:41:00,
2013-09-26 16:45:00,87.4,76.0,29.74,East,96,5.0,12.2,69,0.00,,---,0.00,508.00,VWS V14.01,2013-09-26 21:45:00,
2013-09-26 16:46:00,87.4,76.0,29.74,East,80,7.0,12.2,69,0.00,,---,0.00,519.00,VWS V14.01,2013-09-26 21:46:00,
2013-09-26 16:50:00,87.4,75.6,29.74,East,101,6.0,12.2,68,0.00,,---,0.00,510.00,VWS V14.01,2013-09-26 21:50:00,
2013-09-26 16:51:00,87.4,75.6,29.74,East,80,5.0,12.2,68,0.00,,---,0.00,510.00,VWS V14.01,2013-09-26 21:51:00,
2013-09-26 16:55:00,87.4,76.0,29.74,SSE,158,7.0,13.2,69,0.00,,---,0.00,499.00,VWS V14.01,2013-09-26 21:55:00,
2013-09-26 16:56:00,87.4,76.0,29.74,SE,142,10.0,13.2,69,0.00,,---,0.00,499.00,VWS V14.01,2013-09-26 21:56:00,
2013-09-26 17:00:00,88.0,76.1,29.74,East,94,10.0,12.2,68,0.00,,---,0.00,489.00,VWS V14.01,2013-09-26 22:00:00,
2013-09-26 17:01:00,88.0,76.1,29.74,East,98,10.0,12.2,68,0.00,,---,0.00,489.00,VWS V14.01,2013-09-26 22:01:00,
2013-09-26 17:05:00,86.7,75.8,29.74,East,95,5.0,12.2,70,0.00,,---,0.00,427.00,VWS V14.01,2013-09-26 22:05:00,
2013-09-26 17:06:00,87.0,75.6,29.74,ESE,103,8.0,12.2,69,0.00,,---,0.00,427.00,VWS V14.01,2013-09-26 22:06:00,
2013-09-26 17:10:00,86.5,75.6,29.74,ENE,68,5.0,12.2,70,0.00,,---,0.00,417.00,VWS V14.01,2013-09-26 22:10:00,
2013-09-26 17:11:00,86.5,75.6,29.74,East,85,6.0,12.2,70,0.00,,---,0.00,417.00,VWS V14.01,2013-09-26 22:11:00,
2013-09-26 17:15:00,86.7,76.2,29.74,East,96,7.0,12.2,71,0.00,,---,0.00,466.00,VWS V14.01,2013-09-26 22:15:00,
2013-09-26 17:16:00,86.7,76.2,29.74,East,101,10.0,12.2,71,0.00,,---,0.00,466.00,VWS V14.01,2013-09-26 22:16:00,
2013-09-26 17:20:00,86.5,76.4,29.74,ESE,108,6.0,11.2,72,0.00,,---,0.00,420.00,VWS V14.01,2013-09-26 22:20:00,
2013-09-26 17:21:00,86.5,76.4,29.74,East,90,4.0,11.2,72,0.00,,---,0.00,420.00,VWS V14.01,2013-09-26 22:21:00,
2013-09-26 17:25:00,87.4,76.4,29.74,ESE,104,7.0,12.2,70,0.00,,---,0.00,396.00,VWS V14.01,2013-09-26 22:25:00,
2013-09-26 17:26:00,87.4,76.4,29.74,ESE,115,6.0,12.2,70,0.00,,---,0.00,396.00,VWS V14.01,2013-09-26 22:26:00,
2013-09-26 17:30:00,86.7,75.8,29.74,SE,132,7.0,12.2,70,0.00,,---,0.00,362.00,VWS V14.01,2013-09-26 22:30:00,
2013-09-26 17:31:00,86.7,75.8,29.74,ESE,112,5.0,12.2,70,0.00,,---,0.00,362.00,VWS V14.01,2013-09-26 22:31:00,
2013-09-26 17:35:00,86.3,76.6,29.74,ESE,115,6.0,12.2,73,0.00,,---,0.00,343.00,VWS V14.01,2013-09-26 22:35:00,
2013-09-26 17:36:00,86.3,76.6,29.74,East,88,2.0,12.2,73,0.00,,---,0.00,343.00,VWS V14.01,2013-09-26 22:36:00,
2013-09-26 17:40:00,86.1,76.8,29.74,ESE,113,8.0,12.2,74,0.00,,---,0.00,308.00,VWS V14.01,2013-09-26 22:40:00,
2013-09-26 17:41:00,86.1,76.4,29.74,East,88,7.0,12.2,73,0.00,,---,0.00,308.00,VWS V14.01,2013-09-26 22:41:00,
2013-09-26 17:45:00,86.1,76.4,29.74,ESE,106,6.0,12.2,73,0.00,,---,0.00,332.00,VWS V14.01,2013-09-26 22:45:00,
2013-09-26 17:46:00,86.1,76.4,29.74,ESE,119,6.0,12.2,73,0.00,,---,0.00,332.00,VWS V14.01,2013-09-26 22:46:00,
2013-09-26 17:50:00,86.5,76.8,29.74,ESE,110,9.0,13.2,73,0.00,,---,0.00,146.00,VWS V14.01,2013-09-26 22:50:00,
2013-09-26 17:51:00,86.3,76.6,29.74,ESE,106,5.0,13.2,73,0.00,,---,0.00,146.00,VWS V14.01,2013-09-26 22:51:00,
2013-09-26 17:55:00,86.3,76.6,29.74,ENE,61,6.0,12.2,73,0.00,,---,0.00,308.00,VWS V14.01,2013-09-26 22:55:00,
2013-09-26 17:56:00,86.3,76.6,29.74,ENE,69,7.0,12.2,73,0.00,,---,0.00,308.00,VWS V14.01,2013-09-26 22:56:00,
2013-09-26 18:00:00,85.5,76.3,29.73,East,96,4.0,12.2,74,0.00,,---,0.00,107.00,VWS V14.01,2013-09-26 23:00:00,
2013-09-26 18:01:00,85.7,76.5,29.73,East,99,11.0,12.2,74,0.00,,---,0.00,107.00,VWS V14.01,2013-09-26 23:01:00,
2013-09-26 18:05:00,85.1,76.3,29.73,ESE,117,8.0,13.2,75,0.00,,---,0.00,105.00,VWS V14.01,2013-09-26 23:05:00,
2013-09-26 18:06:00,85.1,76.3,29.73,ESE,115,10.0,13.2,75,0.00,,---,0.00,105.00,VWS V14.01,2013-09-26 23:06:00,
2013-09-26 18:10:00,84.9,76.5,29.73,East,96,9.0,13.2,76,0.00,,---,0.00,146.00,VWS V14.01,2013-09-26 23:10:00,
2013-09-26 18:11:00,84.9,76.5,29.73,SE,130,7.0,13.2,76,0.00,,---,0.00,162.00,VWS V14.01,2013-09-26 23:11:00,
2013-09-26 18:15:00,85.3,76.5,29.73,ESE,122,11.0,12.2,75,0.00,,---,0.00,88.00,VWS V14.01,2013-09-26 23:15:00,
2013-09-26 18:16:00,85.3,76.9,29.73,ESE,105,7.0,10.2,76,0.00,,---,0.00,88.00,VWS V14.01,2013-09-26 23:16:00,
2013-09-26 18:20:00,85.5,76.3,29.73,SE,130,8.0,13.2,74,0.00,,---,0.00,172.00,VWS V14.01,2013-09-26 23:20:00,
2013-09-26 18:21:00,85.5,76.3,29.73,SE,124,3.0,13.2,74,0.00,,---,0.00,172.00,VWS V14.01,2013-09-26 23:21:00,
2013-09-26 18:25:00,85.3,76.9,29.73,ESE,107,2.0,10.2,76,0.00,,---,0.00,146.00,VWS V14.01,2013-09-26 23:25:00,
2013-09-26 18:26:00,85.3,76.9,29.73,ESE,107,3.0,10.2,76,0.00,,---,0.00,142.00,VWS V14.01,2013-09-26 23:26:00,
2013-09-26 18:30:00,85.3,76.5,29.73,ESE,119,9.0,11.2,75,0.00,,---,0.00,118.00,VWS V14.01,2013-09-26 23:30:00,
2013-09-26 18:31:00,85.3,76.9,29.73,ESE,123,3.0,11.2,76,0.00,,---,0.00,118.00,VWS V14.01,2013-09-26 23:31:00,
2013-09-26 18:35:00,84.9,76.1,29.73,East,99,4.0,12.2,75,0.00,,---,0.00,51.00,VWS V14.01,2013-09-26 23:35:00,
2013-09-26 18:36:00,84.9,76.1,29.73,East,98,4.0,12.2,75,0.00,,---,0.00,51.00,VWS V14.01,2013-09-26 23:36:00,
2013-09-26 18:40:00,84.7,76.3,29.73,ESE,115,9.0,12.2,76,0.00,,---,0.00,69.00,VWS V14.01,2013-09-26 23:40:00,
2013-09-26 18:41:00,84.7,76.3,29.73,SE,126,8.0,12.2,76,0.00,,---,0.00,69.00,VWS V14.01,2013-09-26 23:41:00,
2013-09-26 18:45:00,85.3,76.5,29.73,SE,130,9.0,12.2,75,0.00,,---,0.00,51.00,VWS V14.01,2013-09-26 23:45:00,
2013-09-26 18:46:00,85.3,76.5,29.73,East,92,3.0,12.2,75,0.00,,---,0.00,56.00,VWS V14.01,2013-09-26 23:46:00,
2013-09-26 18:50:00,85.1,76.3,29.73,ESE,114,11.0,15.2,75,0.00,,---,0.00,60.00,VWS V14.01,2013-09-26 23:50:00,
2013-09-26 18:51:00,85.3,76.9,29.73,SE,138,9.0,15.2,76,0.00,,---,0.00,60.00,VWS V14.01,2013-09-26 23:51:00,
2013-09-26 18:55:00,84.5,76.5,29.73,East,98,5.0,14.2,77,0.00,,---,0.00,42.00,VWS V14.01,2013-09-26 23:55:00,
2013-09-26 18:56:00,84.5,76.5,29.73,ESE,108,4.0,14.2,77,0.00,,---,0.00,42.00,VWS V14.01,2013-09-26 23:56:00,
2013-09-26 19:00:00,84.3,76.3,29.74,ESE,119,7.0,12.2,77,0.00,,---,0.00,30.00,VWS V14.01,2013-09-27 00:00:00,
2013-09-26 19:01:00,84.3,76.3,29.74,ESE,112,5.0,12.2,77,0.00,,---,0.00,35.00,VWS V14.01,2013-09-27 00:01:00,
2013-09-26 19:05:00,84.0,76.0,29.74,ESE,115,6.0,14.2,77,0.00,,---,0.00,12.00,VWS V14.01,2013-09-27 00:05:00,
2013-09-26 19:06:00,84.0,76.0,29.74,ESE,115,9.0,14.2,77,0.00,,---,0.00,14.00,VWS V14.01,2013-09-27 00:06:00,
2013-09-26 19:10:00,84.0,76.0,29.74,SE,135,6.0,13.2,77,0.00,,---,0.00,9.00,VWS V14.01,2013-09-27 00:10:00,
2013-09-26 19:11:00,84.0,76.0,29.74,ESE,115,5.0,13.2,77,0.00,,---,0.00,9.00,VWS V14.01,2013-09-27 00:11:00,
2013-09-26 19:15:00,84.0,75.6,29.74,SSE,148,6.0,12.2,76,0.00,,---,0.00,5.00,VWS V14.01,2013-09-27 00:15:00,
2013-09-26 19:16:00,84.0,75.6,29.74,SE,126,11.0,12.2,76,0.00,,---,0.00,5.00,VWS V14.01,2013-09-27 00:16:00,
2013-09-26 19:20:00,83.6,75.6,29.74,East,98,11.0,13.2,77,0.00,,---,0.00,0.00,VWS V14.01,2013-09-27 00:20:00,
2013-09-26 19:21:00,83.6,75.6,29.74,SE,138,9.0,13.2,77,0.00,,---,0.00,0.00,VWS V14.01,2013-09-27 00:21:00,
2013-09-26 19:25:00,83.4,75.4,29.74,SE,138,6.0,14.2,77,0.00,,---,0.00,0.00,VWS V14.01,2013-09-27 00:25:00,
2013-09-26 19:26:00,83.4,75.4,29.74,ESE,110,11.0,14.2,77,0.00,,---,0.00,0.00,VWS V14.01,2013-09-27 00:26:00,
2013-09-26 19:30:00,83.6,75.6,29.75,SE,126,5.0,13.2,77,0.00,,---,0.00,0.00,VWS V14.01,2013-09-27 00:30:00,
2013-09-26 19:31:00,83.4,75.4,29.75,SSE,147,6.0,8.2,77,0.00,,---,0.00,0.00,VWS V14.01,2013-09-27 00:31:00,
2013-09-26 19:35:00,83.6,75.6,29.75,ESE,121,3.0,13.2,77,0.00,,---,0.00,0.00,VWS V14.01,2013-09-27 00:35:00,
2013-09-26 19:36:00,83.6,75.6,29.75,SE,134,6.0,13.2,77,0.00,,---,0.00,0.00,VWS V14.01,2013-09-27 00:36:00,
2013-09-26 19:40:00,83.8,75.0,29.75,ESE,123,5.0,12.2,75,0.00,,---,0.00,0.00,VWS V14.01,2013-09-27 00:40:00,
2013-09-26 19:41:00,83.8,75.4,29.75,SE,127,7.0,12.2,76,0.00,,---,0.00,0.00,VWS V14.01,2013-09-27 00:41:00,
2013-09-26 19:45:00,84.1,75.3,29.75,SE,134,9.0,13.2,75,0.00,,---,0.00,0.00,VWS V14.01,2013-09-27 00:45:00,
2013-09-26 19:46:00,84.1,75.3,29.75,SE,142,6.0,13.2,75,0.00,,---,0.00,0.00,VWS V14.01,2013-09-27 00:46:00,
2013-09-26 19:50:00,83.6,74.8,29.75,SE,134,7.0,15.2,75,0.00,,---,0.00,0.00,VWS V14.01,2013-09-27 00:50:00,
2013-09-26 19:51:00,83.6,74.8,29.75,SE,138,9.0,15.2,75,0.00,,---,0.00,0.00,VWS V14.01,2013-09-27 00:51:00,
2013-09-26 19:55:00,83.2,75.2,29.75,ESE,115,5.0,14.2,77,0.00,,---,0.00,0.00,VWS V14.01,2013-09-27 00:55:00,
2013-09-26 19:56:00,83.2,75.2,29.75,ESE,121,7.0,14.2,77,0.00,,---,0.00,0.00,VWS V14.01,2013-09-27 00:56:00,
2013-09-26 20:00:00,83.0,75.4,29.75,SE,131,10.0,13.2,78,0.00,,---,0.00,0.00,VWS V14.01,2013-09-27 01:00:00,
2013-09-26 20:01:00,83.0,75.4,29.75,ESE,107,12.0,13.2,78,0.00,,---,0.00,0.00,VWS V14.01,2013-09-27 01:01:00,
2013-09-26 20:05:00,83.0,75.8,29.75,ESE,123,7.0,14.2,79,0.00,,---,0.00,0.00,VWS V14.01,2013-09-27 01:05:00,
2013-09-26 20:06:00,83.0,75.8,29.75,SSE,153,5.0,14.2,79,0.00,,---,0.00,0.00,VWS V14.01,2013-09-27 01:06:00,
2013-09-26 20:10:00,83.0,76.2,29.75,SE,136,6.0,14.2,80,0.00,,---,0.00,0.00,VWS V14.01,2013-09-27 01:10:00,
2013-09-26 20:11:00,83.0,76.2,29.75,SE,134,4.0,14.2,80,0.00,,---,0.00,0.00,VWS V14.01,2013-09-27 01:11:00,
2013-09-26 20:15:00,83.4,76.2,29.75,ESE,111,7.0,11.2,79,0.00,,---,0.00,0.00,VWS V14.01,2013-09-27 01:15:00,
2013-09-26 20:16:00,83.4,76.2,29.75,ESE,123,2.0,10.2,79,0.00,,---,0.00,0.00,VWS V14.01,2013-09-27 01:16:00,
2013-09-26 20:20:00,83.2,75.6,29.75,SE,124,3.0,13.2,78,0.00,,---,0.00,0.00,VWS V14.01,2013-09-27 01:20:00,
2013-09-26 20:21:00,83.2,75.6,29.75,SE,124,3.0,13.2,78,0.00,,---,0.00,0.00,VWS V14.01,2013-09-27 01:21:00,
2013-09-26 20:25:00,83.0,75.4,29.75,ESE,121,2.0,16.2,78,0.00,,---,0.00,0.00,VWS V14.01,2013-09-27 01:25:00,
2013-09-26 20:26:00,83.0,75.4,29.75,ESE,123,6.0,16.2,78,0.00,,---,0.00,0.00,VWS V14.01,2013-09-27 01:26:00,
2013-09-26 20:30:00,83.0,75.4,29.75,ESE,118,7.0,18.2,78,0.00,,---,0.00,0.00,VWS V14.01,2013-09-27 01:30:00,
2013-09-26 20:31:00,83.0,75.4,29.75,East,98,9.0,18.2,78,0.00,,---,0.00,0.00,VWS V14.01,2013-09-27 01:31:00,
2013-09-26 20:35:00,83.0,75.4,29.75,SE,127,11.0,14.2,78,0.00,,---,0.00,0.00,VWS V14.01,2013-09-27 01:35:00,
2013-09-26 20:36:00,83.0,75.4,29.75,SE,128,7.0,14.2,78,0.00,,---,0.00,0.00,VWS V14.01,2013-09-27 01:36:00,
2013-09-26 20:40:00,83.2,75.2,29.75,ESE,121,10.0,16.2,77,0.00,,---,0.00,0.00,VWS V14.01,2013-09-27 01:40:00,
2013-09-26 20:41:00,83.0,75.1,29.75,SE,127,13.0,16.2,77,0.00,,---,0.00,0.00,VWS V14.01,2013-09-27 01:41:00,
2013-09-26 20:45:00,83.4,75.4,29.76,SE,128,7.0,16.2,77,0.00,,---,0.00,0.00,VWS V14.01,2013-09-27 01:45:00,
2013-09-26 20:46:00,83.4,75.4,29.76,SE,142,6.0,16.2,77,0.00,,---,0.00,0.00,VWS V14.01,2013-09-27 01:46:00,
2013-09-26 20:50:00,83.6,75.6,29.76,ESE,123,4.0,17.2,77,0.00,,---,0.00,0.00,VWS V14.01,2013-09-27 01:50:00,
2013-09-26 20:51:00,83.6,75.6,29.76,ESE,119,10.0,17.2,77,0.00,,---,0.00,0.00,VWS V14.01,2013-09-27 01:51:00,
2013-09-26 20:55:00,83.4,76.2,29.76,SSE,153,9.0,14.2,79,0.00,,---,0.00,0.00,VWS V14.01,2013-09-27 01:55:00,
2013-09-26 20:56:00,83.4,76.2,29.76,SSE,155,12.0,14.2,79,0.00,,---,0.00,0.00,VWS V14.01,2013-09-27 01:56:00,
2013-09-26 21:00:00,83.2,76.4,29.76,SE,141,8.0,18.2,80,0.00,,---,0.00,0.00,VWS V14.01,2013-09-27 02:00:00,
2013-09-26 21:01:00,83.2,76.4,29.76,ESE,118,14.0,18.2,80,0.00,,---,0.00,0.00,VWS V14.01,2013-09-27 02:01:00,
2013-09-26 21:05:00,83.0,76.2,29.76,East,83,5.0,16.2,80,0.00,,---,0.00,0.00,VWS V14.01,2013-09-27 02:05:00,
2013-09-26 21:06:00,83.0,76.2,29.76,SE,131,15.0,16.2,80,0.00,,---,0.00,0.00,VWS V14.01,2013-09-27 02:06:00,
2013-09-26 21:10:00,83.0,76.2,29.76,ESE,113,9.0,14.2,80,0.00,,---,0.00,0.00,VWS V14.01,2013-09-27 02:10:00,
2013-09-26 21:11:00,83.0,76.2,29.76,ESE,117,4.0,14.2,80,0.00,,---,0.00,0.00,VWS V14.01,2013-09-27 02:11:00,
2013-09-26 21:15:00,82.8,75.6,29.77,SE,143,12.0,15.2,79,0.00,,---,0.00,0.00,VWS V14.01,2013-09-27 02:15:00,
2013-09-26 21:16:00,82.8,75.6,29.76,SSE,148,6.0,14.2,79,0.00,,---,0.00,0.00,VWS V14.01,2013-09-27 02:16:00,
2013-09-26 21:20:00,83.2,76.0,29.77,SE,134,5.0,19.2,79,0.00,,---,0.00,0.00,VWS V14.01,2013-09-27 02:20:00,
2013-09-26 21:21:00,83.0,75.8,29.76,ESE,107,6.0,19.2,79,0.00,,---,0.00,0.00,VWS V14.01,2013-09-27 02:21:00,
2013-09-26 21:25:00,83.2,75.6,29.77,SSE,150,7.0,15.2,78,0.00,,---,0.00,0.00,VWS V14.01,2013-09-27 02:25:00,
2013-09-26 21:26:00,83.2,75.6,29.76,SE,135,10.0,15.2,78,0.00,,---,0.00,0.00,VWS V14.01,2013-09-27 02:26:00,
2013-09-26 21:30:00,83.0,76.2,29.77,SE,132,12.0,15.2,80,0.00,,---,0.00,0.00,VWS V14.01,2013-09-27 02:30:00,
2013-09-26 21:31:00,83.0,76.2,29.77,SE,128,13.0,15.2,80,0.00,,---,0.00,0.00,VWS V14.01,2013-09-27 02:31:00,
2013-09-26 21:35:00,82.8,76.4,29.77,ESE,117,9.0,15.2,81,0.00,,---,0.00,0.00,VWS V14.01,2013-09-27 02:35:00,
2013-09-26 21:36:00,82.8,76.4,29.77,SE,128,11.0,15.2,81,0.00,,---,0.00,0.00,VWS V14.01,2013-09-27 02:36:00,
2013-09-26 21:40:00,82.8,76.4,29.77,ESE,121,7.0,13.2,81,0.00,,---,0.00,0.00,VWS V14.01,2013-09-27 02:40:00,
2013-09-26 21:41:00,82.8,76.4,29.77,ESE,123,5.0,13.2,81,0.00,,---,0.00,0.00,VWS V14.01,2013-09-27 02:41:00,
2013-09-26 21:45:00,82.8,76.0,29.78,SE,144,9.0,17.2,80,0.00,,---,0.00,0.00,VWS V14.01,2013-09-27 02:45:00,
2013-09-26 21:46:00,82.8,76.0,29.78,SE,131,10.0,17.2,80,0.00,,---,0.00,0.00,VWS V14.01,2013-09-27 02:46:00,
2013-09-26 21:50:00,83.0,76.2,29.78,East,101,6.0,16.2,80,0.00,,---,0.00,0.00,VWS V14.01,2013-09-27 02:50:00,
2013-09-26 21:51:00,83.0,76.2,29.78,SE,138,10.0,16.2,80,0.00,,---,0.00,0.00,VWS V14.01,2013-09-27 02:51:00,
2013-09-26 21:55:00,83.4,76.6,29.78,SSE,152,6.0,12.2,80,0.00,,---,0.00,0.00,VWS V14.01,2013-09-27 02:55:00,
2013-09-26 21:56:00,83.2,76.4,29.78,SE,126,5.0,12.2,80,0.00,,---,0.00,0.00,VWS V14.01,2013-09-27 02:56:00,
2013-09-26 22:00:00,83.4,76.2,29.78,SE,138,8.0,18.2,79,0.00,,---,0.00,0.00,VWS V14.01,2013-09-27 03:00:00,
2013-09-26 22:01:00,83.4,76.2,29.78,SE,141,4.0,18.2,79,0.00,,---,0.00,0.00,VWS V14.01,2013-09-27 03:01:00,
2013-09-26 22:05:00,83.0,76.2,29.78,SE,131,6.0,15.2,80,0.00,,---,0.00,0.00,VWS V14.01,2013-09-27 03:05:00,
2013-09-26 22:06:00,83.0,76.2,29.78,SE,126,4.0,15.2,80,0.00,,---,0.00,0.00,VWS V14.01,2013-09-27 03:06:00,
2013-09-26 22:10:00,82.8,76.0,29.78,SE,135,7.0,17.2,80,0.00,,---,0.00,0.00,VWS V14.01,2013-09-27 03:10:00,
2013-09-26 22:11:00,82.8,76.0,29.78,SE,139,9.0,17.2,80,0.00,,---,0.00,0.00,VWS V14.01,2013-09-27 03:11:00,
2013-09-26 22:15:00,82.8,76.4,29.78,ESE,119,15.0,17.2,81,0.00,,---,0.00,0.00,VWS V14.01,2013-09-27 03:15:00,
2013-09-26 22:16:00,82.8,76.0,29.78,SE,144,11.0,17.2,80,0.00,,---,0.00,0.00,VWS V14.01,2013-09-27 03:16:00,
2013-09-26 22:20:00,82.6,76.6,29.78,SSE,161,8.0,16.2,82,0.00,,---,0.00,0.00,VWS V14.01,2013-09-27 03:20:00,
2013-09-26 22:21:00,82.6,76.6,29.78,SE,138,12.0,16.2,82,0.00,,---,0.00,0.00,VWS V14.01,2013-09-27 03:21:00,
2013-09-26 22:25:00,82.6,76.2,29.78,SE,134,6.0,18.2,81,0.00,,---,0.00,0.00,VWS V14.01,2013-09-27 03:25:00,
2013-09-26 22:26:00,82.6,76.2,29.78,ESE,107,15.0,18.2,81,0.00,,---,0.00,0.00,VWS V14.01,2013-09-27 03:26:00,
2013-09-26 22:30:00,82.6,76.2,29.79,SE,146,9.0,18.2,81,0.00,,---,0.00,0.00,VWS V14.01,2013-09-27 03:30:00,
2013-09-26 22:31:00,82.6,76.2,29.79,SE,146,12.0,14.2,81,0.00,,---,0.00,0.00,VWS V14.01,2013-09-27 03:31:00,
2013-09-26 22:35:00,83.0,76.6,29.79,SE,134,9.0,17.2,81,0.00,,---,0.00,0.00,VWS V14.01,2013-09-27 03:35:00,
2013-09-26 22:36:00,83.0,76.6,29.79,SE,144,12.0,13.2,81,0.00,,---,0.00,0.00,VWS V14.01,2013-09-27 03:36:00,
2013-09-26 22:40:00,82.8,76.4,29.79,ESE,120,12.0,18.2,81,0.00,,---,0.00,0.00,VWS V14.01,2013-09-27 03:40:00,
2013-09-26 22:41:00,82.8,76.4,29.79,SE,130,11.0,17.2,81,0.00,,---,0.00,0.00,VWS V14.01,2013-09-27 03:41:00,
2013-09-26 22:45:00,82.6,76.6,29.79,SSE,159,6.0,16.2,82,0.00,,---,0.00,0.00,VWS V14.01,2013-09-27 03:45:00,
2013-09-26 22:46:00,82.6,76.6,29.79,SE,132,3.0,16.2,82,0.00,,---,0.00,0.00,VWS V14.01,2013-09-27 03:46:00,
2013-09-26 22:50:00,82.6,76.6,29.79,SSE,154,10.0,15.2,82,0.00,,---,0.00,0.00,VWS V14.01,2013-09-27 03:50:00,
2013-09-26 22:51:00,82.6,76.6,29.79,SE,146,10.0,15.2,82,0.00,,---,0.00,0.00,VWS V14.01,2013-09-27 03:51:00,
2013-09-26 22:55:00,82.6,75.8,29.79,SSE,151,21.0,22.2,80,0.00,,---,0.00,0.00,VWS V14.01,2013-09-27 03:55:00,
2013-09-26 22:56:00,82.6,76.2,29.79,SE,142,5.0,17.2,81,0.00,,---,0.00,0.00,VWS V14.01,2013-09-27 03:56:00,
2013-09-26 23:00:00,82.6,75.8,29.79,SE,135,3.0,22.2,80,0.00,,---,0.00,0.00,VWS V14.01,2013-09-27 04:00:00,
2013-09-26 23:01:00,82.6,75.8,29.79,ESE,110,9.0,22.2,80,0.00,,---,0.00,0.00,VWS V14.01,2013-09-27 04:01:00,
2013-09-26 23:05:00,82.8,76.4,29.79,SSE,155,6.0,14.2,81,0.00,,---,0.00,0.00,VWS V14.01,2013-09-27 04:05:00,
2013-09-26 23:06:00,82.8,76.4,29.79,SSE,148,13.0,14.2,81,0.00,,---,0.00,0.00,VWS V14.01,2013-09-27 04:06:00,
2013-09-26 23:10:00,82.8,76.4,29.79,SE,145,10.0,15.2,81,0.00,,---,0.00,0.00,VWS V14.01,2013-09-27 04:10:00,
2013-09-26 23:11:00,82.8,76.4,29.79,SSE,147,9.0,11.2,81,0.00,,---,0.00,0.00,VWS V14.01,2013-09-27 04:11:00,
2013-09-26 23:15:00,83.2,76.8,29.79,SSE,162,11.0,15.2,81,0.00,,---,0.00,0.00,VWS V14.01,2013-09-27 04:15:00,
2013-09-26 23:16:00,83.2,76.8,29.79,SE,144,6.0,12.2,81,0.00,,---,0.00,0.00,VWS V14.01,2013-09-27 04:16:00,
2013-09-26 23:20:00,83.2,76.4,29.79,ESE,106,3.0,14.2,80,0.00,,---,0.00,0.00,VWS V14.01,2013-09-27 04:20:00,
2013-09-26 23:21:00,83.2,76.4,29.79,SE,140,6.0,11.2,80,0.00,,---,0.00,0.00,VWS V14.01,2013-09-27 04:21:00,
2013-09-26 23:25:00,82.8,76.4,29.79,SE,128,3.0,13.2,81,0.00,,---,0.00,0.00,VWS V14.01,2013-09-27 04:25:00,
2013-09-26 23:26:00,82.6,76.2,29.79,SE,132,6.0,7.2,81,0.00,,---,0.00,0.00,VWS V14.01,2013-09-27 04:26:00,
2013-09-26 23:30:00,82.6,76.2,29.80,ESE,107,9.0,17.2,81,0.00,,---,0.00,0.00,VWS V14.01,2013-09-27 04:30:00,
2013-09-26 23:31:00,82.6,76.2,29.80,SSE,167,7.0,13.2,81,0.00,,---,0.00,0.00,VWS V14.01,2013-09-27 04:31:00,
2013-09-26 23:35:00,82.4,76.0,29.80,SE,137,10.0,16.2,81,0.00,,---,0.00,0.00,VWS V14.01,2013-09-27 04:35:00,
2013-09-26 23:36:00,82.4,76.0,29.80,SSE,155,11.0,17.2,81,0.00,,---,0.00,0.00,VWS V14.01,2013-09-27 04:36:00,
2013-09-26 23:40:00,82.4,75.6,29.80,SSE,163,4.0,17.2,80,0.00,,---,0.00,0.00,VWS V14.01,2013-09-27 04:40:00,
2013-09-26 23:41:00,82.4,75.6,29.80,SSE,150,9.0,10.2,80,0.00,,---,0.00,0.00,VWS V14.01,2013-09-27 04:41:00,
2013-09-26 23:45:00,82.4,76.0,29.80,ESE,123,3.0,15.2,81,0.00,,---,0.00,0.00,VWS V14.01,2013-09-27 04:45:00,
2013-09-26 23:46:00,82.4,76.0,29.80,SE,137,3.0,4.2,81,0.00,,---,0.00,0.00,VWS V14.01,2013-09-27 04:46:00,
2013-09-26 23:50:00,82.6,76.2,29.80,SSE,160,4.0,14.2,81,0.00,,---,0.00,0.00,VWS V14.01,2013-09-27 04:50:00,
2013-09-26 23:51:00,82.6,76.2,29.80,SSE,158,4.0,6.2,81,0.00,,---,0.00,0.00,VWS V14.01,2013-09-27 04:51:00,
2013-09-26 23:55:00,82.6,76.2,29.80,SE,137,6.0,14.2,81,0.00,,---,0.00,0.00,VWS V14.01,2013-09-27 04:55:00,
2013-09-26 23:56:00,82.6,76.2,29.80,SE,126,5.0,10.2,81,0.00,,---,0.00,0.00,VWS V14.01,2013-09-27 04:56:00,